NDF427 EDDC-EDDH

Flight info

Callsign NDF427
Flight time 0h 44m
Altitude 28000
Route OSKAN9E OSKAN M748 RARUP RARUP6A
Aircraft A320/M-SDE3FGHIRWY/LB1

Departure

Time 2026-05-06 18:52
Airport Dresden Airport (EDDC)

Arrival

Time 2026-05-06 19:37
Airport Hamburg Helmut Schmidt Airport (EDDH)
Time Latitude Longitude Altitude Speed Heading
2026-05-06 18:29 51.12627 13.76542 711 ft 0 kts 221°
2026-05-06 18:45 51.12630 13.76546 711 ft 3 kts 221°
2026-05-06 18:45 51.12650 13.76575 716 ft 4 kts 226°
2026-05-06 18:45 51.12667 13.76607 716 ft 4 kts 235°
2026-05-06 18:46 51.12679 13.76644 715 ft 4 kts 268°
2026-05-06 18:46 51.12676 13.76668 715 ft 1 kts 311°
2026-05-06 18:46 51.12674 13.76672 715 ft 0 kts 311°
2026-05-06 18:48 51.12677 13.76667 715 ft 3 kts 311°
2026-05-06 18:48 51.12696 13.76631 712 ft 4 kts 311°
2026-05-06 18:48 51.12728 13.76575 713 ft 7 kts 311°
2026-05-06 18:49 51.12758 13.76520 714 ft 7 kts 311°
2026-05-06 18:49 51.12787 13.76402 712 ft 14 kts 249°
2026-05-06 18:49 51.12724 13.76302 712 ft 12 kts 221°
2026-05-06 18:49 51.12664 13.76217 714 ft 11 kts 221°
2026-05-06 18:50 51.12565 13.76082 714 ft 25 kts 220°
2026-05-06 18:50 51.12440 13.75911 714 ft 20 kts 221°
2026-05-06 18:50 51.12370 13.75784 712 ft 13 kts 263°
2026-05-06 18:50 51.12395 13.75659 715 ft 11 kts 290°
2026-05-06 18:51 51.12431 13.75561 715 ft 9 kts 310°
2026-05-06 18:51 51.12472 13.75512 713 ft 7 kts 345°
2026-05-06 18:51 51.12543 13.75575 715 ft 15 kts 41°
2026-05-06 18:51 51.12678 13.75758 714 ft 54 kts 41°
2026-05-06 18:52 51.13147 13.76403 713 ft 121 kts 40°
2026-05-06 18:52 51.13914 13.77450 833 ft 160 kts 40°
2026-05-06 18:52 51.14735 13.78617 1589 ft 158 kts 41°
2026-05-06 18:52 51.15560 13.79779 2385 ft 158 kts 41°
2026-05-06 18:53 51.16419 13.80972 2914 ft 174 kts 41°
2026-05-06 18:53 51.17385 13.82301 3326 ft 194 kts 39°
2026-05-06 18:53 51.18466 13.83772 3748 ft 214 kts 39°
2026-05-06 18:53 51.19685 13.85313 4098 ft 234 kts 28°
2026-05-06 18:54 51.21330 13.85868 4447 ft 256 kts 351°
2026-05-06 18:54 51.23104 13.85206 5204 ft 268 kts 343°
2026-05-06 18:54 51.24936 13.84516 6128 ft 274 kts 346°
2026-05-06 18:54 51.26837 13.83932 7009 ft 280 kts 348°
2026-05-06 18:55 51.28783 13.83451 7910 ft 286 kts 349°
2026-05-06 18:55 51.30719 13.82865 8787 ft 289 kts 340°
2026-05-06 18:55 51.32559 13.81555 9674 ft 290 kts 324°
2026-05-06 18:55 51.34182 13.79565 10271 ft 303 kts 316°
2026-05-06 18:56 51.35831 13.77264 10596 ft 326 kts 315°
2026-05-06 18:56 51.37588 13.74770 10959 ft 346 kts 315°
2026-05-06 18:56 51.39408 13.72183 11641 ft 353 kts 315°
2026-05-06 18:56 51.41263 13.69555 12419 ft 358 kts 315°
2026-05-06 18:57 51.43140 13.66900 13221 ft 363 kts 315°
2026-05-06 18:57 51.45044 13.64212 13979 ft 367 kts 315°
2026-05-06 18:57 51.46983 13.61514 14671 ft 371 kts 316°
2026-05-06 18:57 51.48948 13.58851 15352 ft 376 kts 317°
2026-05-06 18:58 51.50967 13.56157 16019 ft 380 kts 317°
2026-05-06 18:58 51.53016 13.53436 16676 ft 384 kts 317°
2026-05-06 18:58 51.55087 13.50675 17333 ft 388 kts 317°
2026-05-06 18:58 51.57173 13.47878 17976 ft 392 kts 317°
2026-05-06 18:59 51.59273 13.45050 18533 ft 396 kts 317°
2026-05-06 18:59 51.61393 13.42179 19091 ft 399 kts 317°
2026-05-06 18:59 51.63524 13.39285 19647 ft 403 kts 316°
2026-05-06 18:59 51.65675 13.36362 20210 ft 406 kts 316°
2026-05-06 19:00 51.67845 13.33415 20793 ft 409 kts 316°
2026-05-06 19:00 51.70029 13.30451 21420 ft 413 kts 316°
2026-05-06 19:00 51.72240 13.27447 22017 ft 418 kts 316°
2026-05-06 19:00 51.73716 13.25435 22397 ft 421 kts 316°
2026-05-06 19:01 51.76725 13.21324 23135 ft 426 kts 316°
2026-05-06 19:01 51.78996 13.18222 23569 ft 430 kts 316°
2026-05-06 19:01 51.81291 13.15083 23779 ft 432 kts 316°
2026-05-06 19:01 51.83592 13.11934 24181 ft 435 kts 316°
2026-05-06 19:02 51.85900 13.08770 24599 ft 437 kts 316°
2026-05-06 19:02 51.88227 13.05570 25017 ft 439 kts 316°
2026-05-06 19:02 51.90558 13.02354 25438 ft 442 kts 315°
2026-05-06 19:02 51.92901 12.99117 25838 ft 444 kts 315°
2026-05-06 19:03 51.95225 12.95904 26248 ft 446 kts 315°
2026-05-06 19:03 51.97590 12.92632 26668 ft 448 kts 315°
2026-05-06 19:03 51.99997 12.89298 27070 ft 450 kts 315°
2026-05-06 19:03 52.02352 12.86037 27448 ft 452 kts 315°
2026-05-06 19:04 52.04750 12.82713 27750 ft 453 kts 315°
2026-05-06 19:04 52.07145 12.79391 27811 ft 452 kts 315°
2026-05-06 19:04 52.09531 12.76076 27809 ft 451 kts 315°
2026-05-06 19:04 52.11911 12.72760 27807 ft 450 kts 315°
2026-05-06 19:05 52.14287 12.69437 27810 ft 449 kts 315°
2026-05-06 19:05 52.16658 12.66117 27814 ft 449 kts 315°
2026-05-06 19:05 52.19022 12.62805 27810 ft 448 kts 315°
2026-05-06 19:05 52.21382 12.59494 27814 ft 448 kts 315°
2026-05-06 19:06 52.23744 12.56178 27818 ft 447 kts 315°
2026-05-06 19:06 52.26100 12.52870 27809 ft 447 kts 315°
2026-05-06 19:06 52.28458 12.49557 27818 ft 447 kts 315°
2026-05-06 19:06 52.30809 12.46248 27811 ft 446 kts 315°
2026-05-06 19:07 52.33162 12.42927 27818 ft 446 kts 315°
2026-05-06 19:07 52.34716 12.40730 27816 ft 446 kts 315°
2026-05-06 19:07 52.37850 12.36292 27817 ft 445 kts 314°
2026-05-06 19:07 52.40157 12.33012 27817 ft 445 kts 314°
2026-05-06 19:08 52.42489 12.29689 27820 ft 445 kts 314°
2026-05-06 19:08 52.44821 12.26368 27823 ft 444 kts 314°
2026-05-06 19:08 52.47154 12.23043 27829 ft 444 kts 314°
2026-05-06 19:08 52.49483 12.19718 27827 ft 444 kts 314°
2026-05-06 19:09 52.51814 12.16386 27830 ft 444 kts 314°
2026-05-06 19:09 52.54143 12.13048 27836 ft 443 kts 314°
2026-05-06 19:09 52.56460 12.09718 27835 ft 443 kts 314°
2026-05-06 19:09 52.58782 12.06380 27832 ft 443 kts 314°
2026-05-06 19:10 52.61101 12.03047 27834 ft 443 kts 314°
2026-05-06 19:10 52.62640 12.00835 27832 ft 443 kts 314°
2026-05-06 19:10 52.64957 11.97497 27838 ft 443 kts 314°
2026-05-06 19:10 52.67272 11.94153 27837 ft 442 kts 314°
2026-05-06 19:11 52.69585 11.90810 27836 ft 442 kts 314°
2026-05-06 19:11 52.71888 11.87482 27188 ft 439 kts 314°
2026-05-06 19:11 52.74188 11.84150 26205 ft 441 kts 314°
2026-05-06 19:11 52.76489 11.80807 25462 ft 438 kts 314°
2026-05-06 19:12 52.78765 11.77499 24824 ft 433 kts 314°
2026-05-06 19:12 52.81018 11.74219 24206 ft 429 kts 314°
2026-05-06 19:12 52.83246 11.70968 23935 ft 427 kts 315°
2026-05-06 19:12 52.85472 11.67715 23835 ft 427 kts 315°
2026-05-06 19:13 52.87738 11.64529 23763 ft 426 kts 317°
2026-05-06 19:13 52.90062 11.61515 23123 ft 423 kts 319°
2026-05-06 19:13 52.92425 11.58631 22402 ft 420 kts 320°
2026-05-06 19:13 52.94789 11.55814 21713 ft 416 kts 321°
2026-05-06 19:14 52.97129 11.53022 21059 ft 412 kts 321°
2026-05-06 19:14 52.99436 11.50231 20426 ft 409 kts 320°
2026-05-06 19:14 53.01681 11.47466 19819 ft 405 kts 320°
2026-05-06 19:14 53.03942 11.44637 19489 ft 395 kts 319°
2026-05-06 19:15 53.06066 11.41963 19373 ft 380 kts 319°
2026-05-06 19:15 53.08141 11.39343 18963 ft 374 kts 319°
2026-05-06 19:15 53.10244 11.36677 17927 ft 387 kts 319°
2026-05-06 19:15 53.12397 11.33945 17112 ft 390 kts 320°
2026-05-06 19:16 53.14552 11.31219 16486 ft 388 kts 320°
2026-05-06 19:16 53.16694 11.28519 15941 ft 385 kts 320°
2026-05-06 19:16 53.18823 11.25842 15389 ft 381 kts 320°
2026-05-06 19:16 53.20930 11.23195 14848 ft 378 kts 320°
2026-05-06 19:17 53.23024 11.20556 14326 ft 375 kts 320°
2026-05-06 19:17 53.25094 11.17932 13795 ft 372 kts 320°
2026-05-06 19:17 53.27146 11.15317 13228 ft 369 kts 320°
2026-05-06 19:17 53.29178 11.12726 12640 ft 367 kts 320°
2026-05-06 19:18 53.31198 11.10147 12051 ft 364 kts 321°
2026-05-06 19:18 53.33204 11.07586 11478 ft 362 kts 321°
2026-05-06 19:18 53.35174 11.05066 10923 ft 360 kts 321°
2026-05-06 19:18 53.37137 11.02563 10747 ft 348 kts 321°
2026-05-06 19:19 53.39038 11.00143 10630 ft 339 kts 321°
2026-05-06 19:19 53.40884 10.97785 10499 ft 328 kts 321°
2026-05-06 19:19 53.42666 10.95502 10373 ft 317 kts 321°
2026-05-06 19:19 53.44311 10.93165 10249 ft 303 kts 309°
2026-05-06 19:20 53.45310 10.90148 10030 ft 293 kts 283°
2026-05-06 19:20 53.45654 10.86805 9892 ft 291 kts 275°
2026-05-06 19:20 53.45887 10.83422 9890 ft 293 kts 275°
2026-05-06 19:20 53.46108 10.80021 9892 ft 293 kts 275°
2026-05-06 19:21 53.46325 10.76622 9890 ft 294 kts 274°
2026-05-06 19:21 53.46539 10.73211 9896 ft 294 kts 274°
2026-05-06 19:21 53.46560 10.69801 9754 ft 291 kts 265°
2026-05-06 19:21 53.46437 10.66457 9333 ft 290 kts 265°
2026-05-06 19:22 53.46290 10.63088 8957 ft 290 kts 264°
2026-05-06 19:22 53.46131 10.59718 8561 ft 289 kts 265°
2026-05-06 19:22 53.45961 10.56361 8145 ft 288 kts 265°
2026-05-06 19:22 53.45779 10.53028 7750 ft 287 kts 265°
2026-05-06 19:23 53.45585 10.49701 7396 ft 285 kts 264°
2026-05-06 19:23 53.45383 10.46397 7100 ft 285 kts 265°
2026-05-06 19:23 53.45173 10.43108 6785 ft 283 kts 264°
2026-05-06 19:23 53.44958 10.39835 6431 ft 281 kts 264°
2026-05-06 19:24 53.44738 10.36586 6037 ft 280 kts 264°
2026-05-06 19:24 53.44513 10.33351 5621 ft 278 kts 264°
2026-05-06 19:24 53.44292 10.30147 5306 ft 273 kts 264°
2026-05-06 19:24 53.44080 10.27050 5176 ft 261 kts 264°
2026-05-06 19:25 53.43875 10.24092 5056 ft 250 kts 264°
2026-05-06 19:25 53.43676 10.21229 4985 ft 245 kts 264°
2026-05-06 19:25 53.43477 10.18385 4989 ft 246 kts 264°
2026-05-06 19:25 53.43277 10.15539 4996 ft 246 kts 264°
2026-05-06 19:26 53.43078 10.12693 4995 ft 246 kts 264°
2026-05-06 19:26 53.42881 10.09886 5004 ft 246 kts 264°
2026-05-06 19:26 53.42680 10.06999 5003 ft 246 kts 264°
2026-05-06 19:26 53.42485 10.04191 4997 ft 246 kts 264°
2026-05-06 19:27 53.42285 10.01341 4999 ft 246 kts 264°
2026-05-06 19:27 53.42086 9.98495 5007 ft 245 kts 264°
2026-05-06 19:27 53.41886 9.95655 5010 ft 246 kts 264°
2026-05-06 19:27 53.41683 9.92802 5003 ft 246 kts 264°
2026-05-06 19:28 53.41478 9.89951 5002 ft 246 kts 264°
2026-05-06 19:28 53.41235 9.87110 5006 ft 247 kts 256°
2026-05-06 19:28 53.40611 9.84428 5002 ft 247 kts 245°
2026-05-06 19:28 53.39872 9.81825 5010 ft 248 kts 244°
2026-05-06 19:29 53.39118 9.79229 5004 ft 248 kts 244°
2026-05-06 19:29 53.38373 9.76629 4999 ft 248 kts 248°
2026-05-06 19:29 53.38091 9.73835 4931 ft 243 kts 278°
2026-05-06 19:29 53.38667 9.71249 4586 ft 236 kts 311°
2026-05-06 19:30 53.39821 9.69331 4229 ft 233 kts 323°
2026-05-06 19:30 53.41072 9.67593 3887 ft 233 kts 324°
2026-05-06 19:30 53.42389 9.66051 3560 ft 228 kts 342°
2026-05-06 19:30 53.43887 9.65483 3266 ft 222 kts
2026-05-06 19:31 53.45396 9.65728 3030 ft 216 kts 18°
2026-05-06 19:31 53.46764 9.66731 3003 ft 215 kts 35°
2026-05-06 19:31 53.48820 9.70240 3003 ft 202 kts 51°
2026-05-06 19:32 53.49702 9.72002 3002 ft 187 kts 51°
2026-05-06 19:32 53.50495 9.73587 3023 ft 172 kts 51°
2026-05-06 19:32 53.51243 9.75085 3020 ft 164 kts 51°
2026-05-06 19:32 53.51971 9.76543 3006 ft 159 kts 51°
2026-05-06 19:33 53.52668 9.77942 2938 ft 154 kts 51°
2026-05-06 19:33 53.53350 9.79308 2757 ft 151 kts 51°
2026-05-06 19:33 53.54024 9.80662 2561 ft 151 kts 51°
2026-05-06 19:33 53.54697 9.82013 2364 ft 151 kts 52°
2026-05-06 19:34 53.55367 9.83360 2154 ft 150 kts 51°
2026-05-06 19:34 53.56033 9.84698 1954 ft 149 kts 51°
2026-05-06 19:34 53.56693 9.86025 1755 ft 147 kts 52°
2026-05-06 19:34 53.57348 9.87344 1544 ft 147 kts 51°
2026-05-06 19:35 53.58003 9.88662 1342 ft 147 kts 51°
2026-05-06 19:35 53.58659 9.89983 1140 ft 148 kts 51°
2026-05-06 19:35 53.59319 9.91314 921 ft 147 kts 50°
2026-05-06 19:35 53.59936 9.92558 711 ft 133 kts 50°
2026-05-06 19:36 53.60518 9.93732 535 ft 128 kts 49°
2026-05-06 19:36 53.61081 9.94869 366 ft 126 kts 50°
2026-05-06 19:36 53.61642 9.96001 201 ft 125 kts 49°
2026-05-06 19:36 53.62192 9.97121 50 ft 120 kts 50°
2026-05-06 19:37 53.62663 9.98060 42 ft 84 kts 51°
2026-05-06 19:37 53.62935 9.98606 45 ft 46 kts 49°
2026-05-06 19:37 53.63071 9.98926 43 ft 29 kts 66°
2026-05-06 19:37 53.63091 9.99125 46 ft 22 kts 93°
2026-05-06 19:38 53.63087 9.99230 47 ft 0 kts 94°
2026-05-06 19:41 53.63084 9.99291 47 ft 15 kts 92°
2026-05-06 19:42 53.63130 9.99483 46 ft 19 kts 55°
2026-05-06 19:42 53.63205 9.99637 48 ft 15 kts 50°
2026-05-06 19:42 53.63218 9.99665 48 ft 0 kts 50°
2026-05-06 19:42 53.63227 9.99701 48 ft 9 kts 81°
2026-05-06 19:43 53.63185 9.99793 48 ft 11 kts 147°
2026-05-06 19:43 53.63117 9.99853 48 ft 15 kts 153°
2026-05-06 19:43 53.62968 9.99982 49 ft 21 kts 153°
2026-05-06 19:43 53.62831 10.00084 48 ft 21 kts 152°
2026-05-06 19:44 53.62746 10.00183 48 ft 7 kts 83°
2026-05-06 19:44 53.62772 10.00272 49 ft 4 kts 63°